DECAYED

WORLDVIEW 2 DEB, 41736 (Decayed)

Orbit data source: Space-Track

WORLDVIEW 2 DEB, 41736 was space debris in SSO originally from a launch on Thu, 08 Oct 2009 UTC launched from the Air Force Western Test Range (AFWTR). Debris objects in space refer to the collection of defunct objects orbiting the Earth. Examples of debris include non-operational satellites, rocket bodies, and fragments generated from explosions, collisions, or faulty payload assembly.

Not visible in the next 10 days
Identifier
41736, 2009-055D
Orbit
Decayed
Country
Flag of USUS
Related business
Manufacturer
Ball
Mission
Decayed spacecraft
Bus & Motor
Unknown
Mass
Unknown
Launch date (UTC)
2009-10-08 (16 years ago)
Launch vehicle
Unknown
Launch site
Air Force Western Test Range (AFWTR)
Object type
Payload
Rocket body
Debris
Shape & HBR
Unknown
Radar Cross Section
Small (<0.1 m²)

Expand to show TLE details & history
Last TLE update: 11 months ago

TLE from 11 months ago
0 WORLDVIEW 2 DEB
1 41736U 09055D   24280.31310700  .09685552  21750+0  43330-1 0  9999
2 41736  98.4323  40.2021 0028343 312.9526  46.9367 15.91500427433648
Epoch: 2024-10-06T07:30Z
TLE epoch observation values (Epoch: 2024-10-06T07:30:52.444Z)
Latitude
-0.00007°
Longitude
-87.97327°
Altitude
288.343 km
Speed
7.742 km/s
True Right ascension
02h 40m 48s
True Declination
0° 00' 00"
Sunlit
Object was in full shadow at epoch
Visualization orbit readout
Latitude
Unknown
Longitude
Unknown
Altitude
Unknown
Speed
Unknown
Apparent Right ascension
Unknown
Apparent Declination
Unknown
Sunlit
N/A
Visualization observer readout
Local Sidereal Time
01:44:30
Azimuth
Unknown
Elevation
Unknown
Doppler factor
Unknown
Orbital elements
Apogee altitude
313.917 km
Perigee altitude
276.089 km
Semi-major axis
6,673.14 km
Eccentricity
0.00283
Inclination
98.4323°
RAAN
40.2021°
Arg. of periapsis
312.9526°
True anomaly
47.17456°
Mean anomaly
46.9367°
Eccentric anomaly
47.05557°
Mean motion
3.98151 °/min
Orbital period
90.42 mins
BSTAR
0.04333
Loading maneuver chart data...
Computing Atmospheric mass density...

Documentation

Showing up to 5 results
|